Regional Weather Roundup
Issued by NWS

Home | Current Version | Previous Version | Graphics & Text | Print | Product List | Glossary On
Versions: 1 2 3 4 5 6 7 8 9 10 11 12 13 14 15 16 17 18 19 20 21 22 23 24 25 26 27 28 29 30 31 32 33 34 35 36 37 38 39 40 41 42 43 44 45 46 47 48 49 50
000
ASUS43 KFSD 271210
RWRSD

WEATHER ROUNDUP FOR SOUTH DAKOTA
NATIONAL WEATHER SERVICE SIOUX FALLS SD
600 AM CST MON FEB 27 2017

NOTE: "FAIR" INDICATES FEW OR NO CLOUDS BELOW 12,000 FEET WITH NO
SIGNIFICANT WEATHER AND/OR OBSTRUCTIONS TO VISIBILITY.


SDZ001>005-009-010-012>017-271300-
NORTHWEST AND NORTH CENTRAL SOUTH DAKOTA

CITY           SKY/WX    TMP DP  RH WIND       PRES   REMARKS
BUFFALO          N/A     20  18  92 E8        29.58F WCI  10
FAITH            N/A     23  22  96 E8        29.69F WCI  14
MOBRIDGE       CLOUDY    24  19  81 E12       29.76F WCI  13
$$

SDZ012>016-024>037-041>051-057-063-072>074-271300-
SOUTHWEST AND SOUTH CENTRAL SOUTH DAKOTA

CITY           SKY/WX    TMP DP  RH WIND       PRES   REMARKS
RAPID CTY ARPT CLOUDY    18  11  74 S7        29.65F WCI   9
PIERRE         CLOUDY    22  18  85 SE6       29.77F WCI  14
CUSTER         CLOUDY    19   2  47 SW7       29.56F WCI  10
ELLSWORTH AFB  CLOUDY    22  12  67 VRB3      29.63F
PHILIP         CLOUDY    22  16  78 E3        29.73F
PINE RIDGE     CLOUDY    25  13  60 S23G32    29.68S WCI  10
SPEARFISH      FAIR      18   9  68 S3        29.61F
WINNER         FAIR      23  12  62 SW16      29.80S WCI  10
$$

SDZ004>011-016>023-039-040-271300-
NORTHEAST SOUTH DAKOTA

CITY           SKY/WX    TMP DP  RH WIND       PRES   REMARKS
ABERDEEN       CLOUDY    21  17  84 NE5       29.85S WCI  15
WATERTOWN      CLEAR     20  17  88 S8        29.83S WCI  10
BROOKINGS      CLEAR     20  17  88 SE6       29.85F WCI  12
SISSETON         N/A     18  17  96 CALM      29.88R
$$

SDZ017-020-022-023-036>040-048>070-271300-
SOUTHEAST SOUTH DAKOTA

CITY           SKY/WX    TMP DP  RH WIND       PRES   REMARKS
SIOUX FALLS    CLOUDY    24  19  81 S6        29.90R WCI  17
HURON          CLEAR     20  17  88 S7        29.84F WCI  11
CHAMBERLAIN    CLOUDY    20  15  80 S3        29.83S
MITCHELL       CLEAR     21  16  81 S6        29.87F WCI  13
YANKTON        CLOUDY    18  10  73 E5        29.90R WCI  11
$$

ABBREVIATIONS USED IN REMARKS
   TC - TEMPERATURE IN CELSIUS
  WCI - WIND CHILL INDEX
   HX - HEAT INDEX
  VSB - VISIBILITY




USA.gov is the U.S. government's official web portal to all federal, state and local government web resources and services.